Regional Weather Roundup
Issued by NWS

Home | Current Version | Previous Version | Graphics & Text | Print | Product List | Glossary On
Versions: 1 2 3 4 5 6 7 8 9 10 11 12 13 14 15 16 17 18 19 20 21 22 23 24 25 26 27 28 29 30 31 32 33 34 35 36 37 38 39 40 41 42 43 44 45 46 47 48 49 50
000
ASUS43 KMPX 222101
RWRMN
WEATHER ROUNDUP FOR MINNESOTA
NATIONAL WEATHER SERVICE TWIN CITIES/CHANHASSEN MN
300 PM CST SUN JAN 22 2017


NOTE: "FAIR" INDICATES FEW OR NO CLOUDS BELOW 12,000 FEET WITH NO
SIGNIFICANT WEATHER AND/OR OBSTRUCTIONS TO VISIBILITY. N/A MEANS
CURRENT SKY AND/OR WEATHER CONDITIONS ARE NOT AVAILABLE.

MNZ060>063-068>070-222200-
   Twin Cities Metro

CITY           SKY/WX    TMP DP  RH WIND       PRES   REMARKS
TWIN CITIES    CLOUDY    40  35  83 NW7       29.72R
ST PAUL        CLOUDY    40  37  89 NW6       29.73R
CRYSTAL        CLOUDY    39  34  82 W6        29.71R
BLAINE         CLOUDY    41  39  93 NW6       29.71R
LAKEVILLE      CLOUDY    36  36 100 W7        29.72R
EDEN PRAIRIE   CLOUDY    39  35  86 W8        29.71R
SOUTH ST PAUL  CLOUDY    40  37  89 W3        29.72R
LAKE ELMO      CLOUDY    37  36  93 W6        29.72R
$$
MNZ001>005-007-008-013>017-022>024-027-028-222200-
   Northwest Minnesota

CITY           SKY/WX    TMP DP  RH WIND       PRES   REMARKS
BEMIDJI        CLOUDY    35  34  96 W6        29.69S WCI  30
HALLOCK        FOG       34  34 100 W5        29.72R VSB 1/4 WCI  30
ROSEAU         HAZE      36  30  80 CALM      29.71R VSB<1/4
WARROAD        CLOUDY    36  30  80 CALM      29.71S
THIEF RVR FALL FOG       33  32  96 W8        29.73R VSB 1/4 WCI  26
CROOKSTON      CLOUDY    32  32 100 W3        29.74S FOG
FOSSTON        FOG       32  32 100 W7        29.72R VSB 1/4 WCI  26
DETROIT LAKES  FOG       32  32 100 NW9       29.74R VSB 1/2 WCI  24
MOORHEAD       CLOUDY    34  30  86 W7        29.76R FOG     WCI  28
PARK RAPIDS    CLOUDY    35  32  88 W7        29.69S WCI  29
MAHNOMEN       FOG       32  32  99 W8        29.72S VSB 1/4 WCI  25
$$
MNZ006-009>011-018-025>026-222200-
   North Central Minnesota

CITY           SKY/WX    TMP DP  RH WIND       PRES   REMARKS
BAUDETTE       CLOUDY    35  33  92 CALM      29.70R
FLAG ISLAND    CLOUDY    34  32  93 S3        29.71R
INTL FALLS     CLOUDY    37  34  89 N3        29.69S
WASKISH        CLOUDY    36  34  93 W3        29.70S
BIG FORK       CLOUDY    37  36  93 CALM      29.69R
LONGVILLE      CLOUDY    36  36 100 CALM      29.70R
GRAND RAPIDS   CLOUDY    37  35  92 W6        29.71R
CRANE LAKE     CLOUDY    34  34 100 NW3       29.70S
ORR            LGT RAIN  34  30  86 CALM      29.66S
COOK           FLURRIES  34  34 100 W3        29.69R
WALKER         CLOUDY    34  34  98 CALM      29.70S
$$
MNZ012-019>021-037-222200-
   Northeast Minnesota

CITY           SKY/WX    TMP DP  RH WIND       PRES   REMARKS
DULUTH         CLOUDY    37  34  89 NW6       29.66R
ELY            CLOUDY    36  34  93 CALM      29.67R
HIBBING        CLOUDY    36  34  92 N5        29.67S
EVELETH        PTSUNNY   35  33  92 NW5       29.69R WCI  31
DULUTH HARBOR  CLOUDY    36  34  93 CALM      29.70R
TWO HARBORS    CLOUDY    39  36  87 CALM      29.65S
SILVER BAY     CLOUDY    37  37 100 S3        29.65S
GRAND MARAIS     N/A     39  35  86 CALM      29.67R
G MARAIS ARPRT CLOUDY    34  28  80 NW3       29.64S
$$
MNZ029>031-032-039>041-046>048-054>057-064-222200-
   West Central Minnesota

CITY           SKY/WX    TMP DP  RH WIND       PRES   REMARKS
FERGUS FALLS   CLOUDY    30  30 100 NW10      29.79R FOG     WCI  21
WHEATON        CLOUDY    37  37 100 W8        29.78S FOG
MORRIS         CLOUDY    32  32 100 W10       29.75R FOG     WCI  24
ALEXANDRIA     FOG       32  32 100 NW8       29.74R VSB 1/4 WCI  25
ELBOW LAKE     FOG       31  31 100 NW8       29.75R VSB 3/4 WCI  24
WADENA         CLOUDY    34  34 100 W7        29.72R FOG     WCI  28
GLENWOOD       FOG       32  32 100 W10       29.74R VSB 1/4 WCI  24
APPLETON       CLOUDY    34  30  86 NW7       29.77S FOG     WCI  28
ORTONVILLE     CLOUDY    32  30  93 CALM      29.77R FOG
MADISON        CLOUDY    34  34 100 W9        29.78R FOG     WCI  26
WILLMAR        CLOUDY    34  34 100 NW10      29.77R FOG     WCI  26
$$
MNZ033>034-036-042>043-049>051-058-059-222200-
   Central Minnesota

CITY           SKY/WX    TMP DP  RH WIND       PRES   REMARKS
ST CLOUD       CLOUDY    37  36  96 NW5       29.72R
SAUK CENTRE    CLOUDY    32  32 100 W9        29.74R FOG     WCI  25
PAYNESVILLE    FOG       34  34 100 W10       29.74R VSB 1   WCI  26
AITKIN         CLOUDY    39  34  81 CALM      29.69R
PINE RIVER     CLOUDY    36  36 100 W5        29.74S
BRAINERD       CLOUDY    37  34  89 NW8       29.70S
STAPLES        CLOUDY    36  36 100 W6        29.71R
LONG PRAIRIE   FOG       34  34 100 SW5       29.72S VSB 3/4 WCI  30
LITTLE FALLS   CLOUDY    37  34  87 W5        29.72S
LITCHFIELD     CLOUDY    37  37 100 W5        29.74R FOG
BUFFALO        CLOUDY    37  34  91 W5        29.73S
MAPLE LAKE     CLOUDY    38  37  97 W6        29.73S
HUTCHINSON     CLOUDY    36  37 100 W7        29.75R FOG
$$
MNZ037-044-045-052-053-222200-
   East Central Minnesota

CITY           SKY/WX    TMP DP  RH WIND       PRES   REMARKS
PRINCETON      CLOUDY    39  37  93 W7        29.72R
MORA           CLOUDY    36  34  93 NW5       29.72R
CAMBRIDGE      CLOUDY    39  39 100 W5        29.69S
RUSH CITY      CLOUDY    37  36  93 W3        29.71S
MOOSE LAKE     CLOUDY    37  34  87 W6        29.67S
HINCKLEY       CLOUDY    37  36  93 W3        29.69S
CLOQUET        CLOUDY    37  34  87 W3        29.67R
MCGREGOR       CLOUDY    36  36 100 NW3       29.70R
$$
MNZ071>073-080-081-089-090-097-098-222200-
   Southwest Minnesota

CITY           SKY/WX    TMP DP  RH WIND       PRES   REMARKS
MONTEVIDEO     CLOUDY    34  34 100 NW12G17   29.79R FOG     WCI  25
GRANITE FALLS  CLOUDY    35  35 100 W10       29.79R FOG     WCI  27
CANBY          CLOUDY    32  31  95 NW8       29.80R FOG     WCI  25
MARSHALL       CLOUDY    33  30  88 NW15      29.78R WCI  23
REDWOOD FALLS  CLOUDY    35  32  88 NW10      29.76S FOG     WCI  27
OLIVIA         CLOUDY    34  34 100 NW12      29.75S FOG     WCI  25
PIPESTONE      CLOUDY    30  30 100 NW12      29.77R FOG     WCI  21
WINDOM         CLOUDY    36  36 100 NW13      29.75S FOG
WORTHINGTON    CLOUDY    35  33  92 NW14      29.77R WCI  26
JACKSON        CLOUDY    34  34 100 NW13      29.76R FOG     WCI  25
TRACY          CLOUDY    35  34  94 W7        29.77R WCI  29
SLAYTON        CLOUDY    32  32  99 W12       29.77R FOG     WCI  23
$$
MNZ065>067-074>077-082>085-091>093-222200-
   South Central Minnesota

CITY           SKY/WX    TMP DP  RH WIND       PRES   REMARKS
MANKATO        CLOUDY    38  35  89 NW8       29.74R
NEW ULM        CLOUDY    36  36 100 NW12      29.75R FOG
ST JAMES       CLOUDY    36  36 100 NW10      29.77R FOG
FAIRMONT       CLOUDY    38  36  92 NW13      29.75R
GLENCOE        CLOUDY    37  37 100 W6        29.73S
OWATONNA       CLOUDY    36  34  93 NW7       29.72S FOG
WASECA         CLOUDY    36  36 100 NW6       29.74S FOG
ALBERT LEA     CLOUDY    36  36 100 NW5       29.71S FOG
$$
MNZ078>079-086>088-094>096-222200-
   Southeast Minnesota

CITY           SKY/WX    TMP DP  RH WIND       PRES   REMARKS
ROCHESTER      FOG       34  34 100 NW10      29.70R VSB 3/4 WCI  26
RED WING       CLOUDY    39  37  93 NW5       29.71R
STANTON        CLOUDY    37  36  95 NW5       29.71R
DODGE CENTER   CLOUDY    34  34 100 CALM      29.70S FOG
WINONA         CLOUDY    37  36  93 NW5       29.71R
AUSTIN         CLOUDY    36  34  93 NW8       29.71R FOG
PRESTON        CLOUDY    34  33  97 NW8       29.70R FOG     WCI  27
$$
ABBREVIATIONS USED IN REMARKS
   TC - TEMPERATURES IN CELSIUS
  WCI - WIND CHILL INDEX
   HX - HEAT INDEX
  VSB - VISIBILITY
$$




USA.gov is the U.S. government's official web portal to all federal, state and local government web resources and services.